New Paris, IN

5:12 AM EDT on August 28, 2016 (GMT -0400)
Goshen Municipal

Weather History for KGSH - February, 2013

Change the Weather History Date:

Sunday, February 3, 2013

  Actual Average Record
Temperature  
Mean Temperature 16 °F -  
Max Temperature 21 °F 31 °F 52 °F (1991)
Min Temperature 12 °F 17 °F -14 °F (1976)
Degree Days  
Heating Degree Days 48    
Moisture  
Dew Point 11 °F    
Average Humidity 78    
Maximum Humidity 86    
Minimum Humidity 68    
Precipitation  
Precipitation 0.00 in - - ()
Sea Level Pressure  
Sea Level Pressure 29.98 in    
Wind  
Wind Speed 8 mph (WSW)    
Max Wind Speed 23 mph    
Max Gust Speed 26 mph    
Visibility 5 miles    
Events Snow    
Averages and records for this station are not official NWS values.
T = Trace of Precipitation, MM = Missing Value Source: NWS Daily Summary

Daily Weather History Graph

Daily Weather History Graph

Search for Another Location

Airport or City:

Trip Planner

Search our weather history database for the weather conditions in past years. The results will help you decide how hot, cold, wet, or windy it might be!

Date:

Astronomy

Feb. 03, 2013 Rise Set
Actual Time 7:52 AM EST 6:02 PM EST
Civil Twilight 7:23 AM EST 6:31 PM EST
Nautical Twilight 6:50 AM EST 7:04 PM EST
Astronomical Twilight 6:17 AM EST 7:36 PM EST
Moon 1:19 AM EST (2/3) 11:38 AM EST (2/3)
Length of Visible Light 11h 07m
Length of Day
10h 09m
Waning Gibbous, 49% of the Moon is Illuminated
Feb 3
Waning Gibbous
Feb 10
New
Feb 17
First Quarter
Feb 25
Full
Mar 4
Last Quarter

Hourly Weather History & Observations

Time (EST) Temp. Windchill Dew Point Humidity Pressure Visibility Wind Dir Wind Speed Gust Speed Precip Events Conditions
12:53 AM 17.1 °F - 8.1 °F 68% 30.03 in 10.0 mi Calm Calm - N/A   Overcast
1:53 AM 16.0 °F - 9.0 °F 74% 30.01 in 10.0 mi Calm Calm - N/A   Overcast
2:31 AM 15.8 °F - 8.6 °F 73% 29.96 in 10.0 mi Calm Calm - N/A   Overcast
2:53 AM 16.0 °F - 9.0 °F 74% 30.00 in 10.0 mi Calm Calm - N/A   Overcast
3:53 AM 16.0 °F - 10.0 °F 77% 29.99 in 10.0 mi Calm Calm - N/A   Overcast
4:53 AM 16.0 °F 8.8 °F 9.0 °F 74% 29.96 in 10.0 mi WSW 4.6 mph - N/A   Overcast
5:53 AM 15.1 °F 9.4 °F 10.9 °F 84% 29.96 in 4.0 mi West 3.5 mph - 0.00 in Snow Light Snow
6:17 AM 15.8 °F 6.1 °F 10.4 °F 79% 29.92 in 4.0 mi West 6.9 mph - 0.00 in Snow Light Snow
6:53 AM 14.0 °F 6.5 °F 10.0 °F 84% 29.96 in 3.0 mi WSW 4.6 mph - 0.00 in Snow Light Snow
7:53 AM 12.9 °F 0.7 °F 8.1 °F 81% 29.97 in 7.0 mi West 9.2 mph - 0.00 in   Overcast
8:01 AM 12.2 °F 0.7 °F 8.6 °F 85% 29.93 in 5.0 mi West 8.1 mph - 0.00 in Snow Light Snow
8:16 AM 12.2 °F 0.7 °F 8.6 °F 85% 29.93 in 2.0 mi WSW 8.1 mph - 0.00 in Snow Light Snow
8:45 AM 12.2 °F 0.7 °F 6.8 °F 79% 29.94 in 4.0 mi WSW 8.1 mph - 0.00 in Snow Light Snow
8:53 AM 12.0 °F -0.4 °F 7.0 °F 80% 29.99 in 5.0 mi West 9.2 mph - 0.00 in Snow Light Snow
9:53 AM 12.9 °F -0.9 °F 7.0 °F 77% 29.99 in 4.0 mi WSW 11.5 mph - 0.00 in Snow Light Snow
10:49 AM 14.0 °F 0.5 °F 8.6 °F 79% 29.93 in 2.5 mi WSW 11.5 mph - 0.00 in Snow Light Snow
10:53 AM 14.0 °F 2.0 °F 8.1 °F 77% 29.98 in 3.0 mi WSW 9.2 mph - 0.00 in Snow Light Snow
11:05 AM 14.0 °F 2.0 °F 8.6 °F 79% 29.93 in 2.0 mi WSW 9.2 mph - 0.00 in Snow Light Snow
11:20 AM 15.8 °F 1.4 °F 8.6 °F 73% 29.94 in 4.0 mi West 13.8 mph - 0.00 in Snow Light Snow
11:43 AM 15.8 °F 0.3 °F 8.6 °F 73% 29.93 in 2.5 mi WSW 16.1 mph - 0.00 in Snow Light Snow
11:53 AM 15.1 °F -0.1 °F 9.0 °F 77% 29.98 in 3.0 mi WSW 15.0 mph - 0.00 in Snow Light Snow
12:53 PM 17.1 °F 3.0 °F 10.0 °F 74% 29.96 in 9.0 mi West 13.8 mph - 0.00 in   Overcast
1:53 PM 18.0 °F 3.1 °F 10.9 °F 74% 29.96 in 9.0 mi West 16.1 mph - N/A   Overcast
2:45 PM 19.4 °F 5.0 °F 12.2 °F 74% 29.93 in 7.0 mi WSW 16.1 mph - N/A   Overcast
2:53 PM 19.9 °F 5.7 °F 12.9 °F 74% 29.97 in 5.0 mi WSW 16.1 mph - 0.00 in Snow Light Snow
3:13 PM 19.4 °F 3.6 °F 14.0 °F 80% 29.94 in 2.0 mi WSW 19.6 mph - 0.00 in Snow Light Snow
3:20 PM 19.4 °F 5.0 °F 14.0 °F 80% 29.94 in 1.8 mi West 16.1 mph 26.5 mph 0.00 in Snow Light Snow
3:34 PM 21.2 °F 5.6 °F 14.0 °F 74% 29.95 in 2.5 mi WSW 20.7 mph - 0.00 in Snow Light Snow
3:51 PM 19.4 °F 2.5 °F 14.0 °F 80% 29.95 in 1.5 mi West 23.0 mph - 0.00 in Snow Light Snow
3:53 PM 19.9 °F 4.3 °F 14.0 °F 78% 30.00 in 1.2 mi West 19.6 mph - 0.00 in Snow Light Snow
4:09 PM 19.4 °F 5.0 °F 15.8 °F 86% 29.96 in 0.8 mi West 16.1 mph - 0.00 in Snow Light Snow
4:25 PM 19.4 °F 6.0 °F 15.8 °F 86% 29.96 in 1.2 mi West 13.8 mph - 0.00 in Snow Light Snow
4:38 PM 19.4 °F 5.5 °F 15.8 °F 86% 29.97 in 0.8 mi West 15.0 mph - 0.00 in Snow Light Snow
4:45 PM 19.4 °F 5.5 °F 15.8 °F 86% 29.97 in 1.2 mi West 15.0 mph 23.0 mph 0.00 in Snow Light Snow
4:53 PM 19.9 °F 6.7 °F 15.1 °F 81% 30.02 in 0.8 mi West 13.8 mph - 0.00 in Snow Light Snow
5:23 PM 19.4 °F 6.6 °F 15.8 °F 86% 29.98 in 1.5 mi West 12.7 mph - 0.00 in Snow Light Snow
5:53 PM 19.9 °F 9.3 °F 14.0 °F 78% 30.03 in 1.2 mi West 9.2 mph - 0.00 in Snow Light Snow
6:03 PM 19.4 °F 9.5 °F 14.0 °F 80% 29.98 in 2.5 mi West 8.1 mph - 0.00 in Snow Light Snow
6:14 PM 19.4 °F 7.9 °F 12.2 °F 74% 29.98 in 4.0 mi WNW 10.4 mph - 0.00 in Snow Light Snow
6:53 PM 19.9 °F 9.3 °F 12.0 °F 71% 30.04 in 10.0 mi West 9.2 mph - 0.00 in   Overcast
7:53 PM 19.9 °F 6.7 °F 10.9 °F 68% 30.04 in 10.0 mi WSW 13.8 mph - N/A   Overcast
8:53 PM 19.0 °F 6.1 °F 10.9 °F 71% 30.05 in 9.0 mi WSW 12.7 mph - N/A   Overcast
9:53 PM 18.0 °F 6.1 °F 10.0 °F 71% 30.06 in 9.0 mi WSW 10.4 mph - N/A   Overcast
10:53 PM 17.1 °F 6.6 °F 9.0 °F 71% 30.06 in 8.0 mi SW 8.1 mph - N/A   Overcast
11:53 PM 18.0 °F 5.4 °F 10.9 °F 74% 30.07 in 9.0 mi WSW 11.5 mph - N/A   Overcast